090  
ASUS41 KALY 230410  
RWRALY  
 
NEW YORK STATE HOURLY WEATHER ROUNDUP  
NATIONAL WEATHER SERVICE ALBANY NY  
1100 PM EST THU FEB 22 2024  
 
NOTE: "FAIR" INDICATES FEW OR NO CLOUDS BELOW 12,000 FEET WITH NO  
SIGNIFICANT WEATHER AND/OR NO S TO VISIBILITY
.  
 
NYZ032-033-038>043-046>054-057>066-NYZ062>081-082-084-230500-  
EAST  
 
 
CITY SKY/WX TMP DP RH WIND PRES REMARKS
 
ALBANY LGT RAIN 38 33 82 S12G20 29.69F WCI 30  
GLENS FALLS MIX PCPN 32 32 100 CALM 29.67F FOG  
POUGHKEEPSIE MIX PCPN 36 35 96 SE3 29.69F FOG  
MONTGOMERY LGT RAIN 33 32 96 N5 29.67F FOG WCI 29  
WHITE PLAINS CLOUDY 37 35 92 SE5 29.70F WCI 33  
ISLIP CLOUDY 40 38 93 SE7 29.72F  
NEW YORK CITY LGT RAIN 41 36 82 S9 29.71F  
CENTRAL PARK LGT RAIN 42 37 82 VRB3 29.73F  

 
 
NYZ005>009-017-018-044>046-055-056-230500-  
CENTRAL  
 
 
CITY SKY/WX TMP DP RH WIND PRES REMARKS
 
FULTON CLOUDY 37 35 92 S5 29.61F WCI 33  
SYRACUSE CLOUDY 40 32 73 S6 29.61F  
ROME CLOUDY 35 34 96 E3 29.65F  
ELMIRA CLOUDY 34 33 96 CALM 29.61F FOG  
BINGHAMTON LGT SNOW 33 31 92 S5 29.58F VSB 3/4 WCI 29  

 
 
NYZ026>034-041>043-087-230500-  
NORTH  
 
 
CITY SKY/WX TMP DP RH WIND PRES REMARKS
 
WATERTOWN CLOUDY 39 36 89 S8 29.60F WCI 33  
FORT DRUM CLOUDY 36 34 93 S7 29.56F WCI 30  
OGDENSBURG CLOUDY 37 36 93 S8 29.57F FOG WCI 31  
MASSENA CLOUDY 39 35 86 SW8 29.60F WCI 33  
SARANAC LAKE CLOUDY 34 32 92 SW7 29.56F FOG WCI 28  
PLATTSBURGH CLOUDY 36 30 79 S6 29.61F WCI 31  

 
 
NYZ001>004-010>016-019>021-085-230500-  
WEST  
 
 
CITY SKY/WX TMP DP RH WIND PRES REMARKS
 
NIAGARA FALLS FOG 38 36 92 SW5 29.58F VSB 1/2 WCI 34  
BUFFALO CLOUDY 42 40 92 SW3 29.59S  
DUNKIRK CLOUDY 46 39 76 S6 29.60F  
JAMESTOWN FOG N/A N/A N/A S3 29.58F VSB 1/4  
WELLSVILLE CLOUDY 39 32 76 VRB3 29.57F  
ROCHESTER CLOUDY 41 36 82 SW5 29.60F  
PENN YAN CLOUDY 35 32 88 S6 29.59F WCI 30  

 
 
KEY  
WCI = WIND CHILL INDEX  
VSB = VISIBILITY  
HX = HEAT INDEX  

 
 
 
CLICK HERE TO GO TO PREVIOUS BULLETINS.

The Nexlab NY Page
The Nexlab VT Page
The Nexlab MA Page
The Nexlab CT Page Main Text Page